FW4803 Marousi GR current weather conditions

sailwx.info

Wind from 035 at 2 knots gusting 6

Air temperature 5.6° C
Dewpoint 0.7° C

Last reported at 2020-Jan-21 05:55 UTC.
Time now 2020-Jan-21 06:29 UTC

Location: N 38°04' E 023°48'.
View on Google Maps.

See reports from other nearby stations

  
Tides and Currents Weather Stations Pressure Air Temp Water Temp Dewpoint Dewpoint Depression Visibility Wind Speed Wind Dir Waves Ship Positions
date/time (UTC)wind fromknots sea level pressurealtimeterstation pressurevisibilityair tempwater tempwave heightnotes
2020-Jan-21 06:05 007 2 gusting 6 5.6
2020-Jan-21 06:00 026 2 gusting 6 5.6
2020-Jan-21 05:55 035 2 gusting 6 5.6
2020-Jan-21 05:50 027 3 gusting 8 5.6
2020-Jan-21 05:45 020 3 gusting 9 5.6
2020-Jan-21 05:40 007 4 gusting 13 5.6
2020-Jan-21 05:35 006 6 gusting 13 5.6
2020-Jan-21 05:30 352 5 gusting 11 5.6
2020-Jan-21 05:25 352 3 gusting 10 5.6
2020-Jan-21 05:20 357 3 gusting 6 5.6
2020-Jan-21 05:15 356 2 gusting 9 5.6
2020-Jan-21 05:10 020 3 gusting 9 5.6
2020-Jan-21 05:05 027 3 gusting 7 5.6
2020-Jan-21 05:00 017 3 gusting 9 5.6
2020-Jan-21 04:55 016 3 gusting 9 5.6
2020-Jan-21 04:50 008 3 gusting 7 5.6
2020-Jan-21 04:45 001 4 gusting 9 5.6
2020-Jan-21 04:40 023 5 gusting 12 5.6
2020-Jan-21 04:35 040 5 gusting 12 5.6
2020-Jan-21 04:30 054 3 gusting 8 5.6
2020-Jan-21 04:25 036 3 gusting 9 5.6
2020-Jan-21 04:20 051 4 gusting 10 5.6
2020-Jan-21 04:15 018 4 gusting 10 5.6
2020-Jan-21 04:10 009 3 gusting 10 6.1
2020-Jan-21 04:05 036 4 gusting 12 6.1
2020-Jan-21 04:00 033 5 gusting 12 6.1
2020-Jan-21 03:55 032 6 gusting 13 6.1
2020-Jan-21 03:50 020 6 gusting 13 6.1
2020-Jan-21 03:45 001 5 gusting 12 6.1
2020-Jan-21 03:40 005 5 gusting 13 6.1
2020-Jan-21 03:35 010 6 gusting 13 6.1
2020-Jan-21 03:30 016 4 gusting 13 6.1
2020-Jan-21 03:25 357 3 gusting 9 6.1
2020-Jan-21 03:20 020 3 gusting 9 6.1
2020-Jan-21 03:15 038 3 gusting 9 6.1
2020-Jan-21 03:10 056 3 gusting 7 6.1
2020-Jan-21 03:05 053 3 gusting 7 6.1
2020-Jan-21 03:00 013 2 gusting 7 6.1
2020-Jan-21 02:55 002 3 gusting 10 6.1
2020-Jan-21 02:50 352 5 gusting 11 6.1
2020-Jan-21 02:45 358 4 gusting 11 6.1
2020-Jan-21 02:40 358 3 gusting 9 6.1
2020-Jan-21 02:35 001 4 gusting 10 6.1
2020-Jan-21 02:30 001 5 gusting 10 6.1
2020-Jan-21 02:25 001 4 gusting 10 6.1
2020-Jan-21 02:20 007 4 gusting 14 6.1
2020-Jan-21 02:15 010 6 gusting 14 6.1
2020-Jan-21 02:10 011 7 gusting 14 6.1
2020-Jan-21 02:05 004 6 gusting 14 6.1
2020-Jan-21 02:00 007 4 gusting 13 6.1
2020-Jan-21 01:55 018 4 gusting 8 6.1
2020-Jan-21 01:50 017 4 gusting 8 6.1
2020-Jan-21 01:45 015 4 gusting 8 6.1
2020-Jan-21 01:40 012 4 gusting 9 6.1
2020-Jan-21 01:35 015 5 gusting 13 6.1
2020-Jan-21 01:30 016 4 gusting 13 6.1
2020-Jan-21 01:25 359 4 gusting 11 6.1
2020-Jan-21 01:20 334 4 gusting 11 6.1
2020-Jan-21 01:15 330 3 gusting 8 6.1
2020-Jan-21 01:10 053 3 gusting 8 6.1
2020-Jan-21 01:05 041 4 gusting 9 6.1
2020-Jan-21 01:00 025 3 gusting 9 6.1
2020-Jan-21 00:55 016 3 gusting 9 6.1
2020-Jan-21 00:50 018 3 gusting 6 6.1
2020-Jan-21 00:45 006 3 gusting 7 6.1
2020-Jan-21 00:40 005 3 gusting 7 6.1
2020-Jan-21 00:35 005 3 gusting 7 6.1
2020-Jan-21 00:30 015 2 gusting 6 6.7
2020-Jan-21 00:25 018 3 gusting 6 6.7
2020-Jan-21 00:20 015 3 gusting 9 6.7
2020-Jan-21 00:15 034 3 gusting 9 6.7
2020-Jan-21 00:10 026 3 gusting 8 6.7
2020-Jan-21 00:05 014 3 gusting 8 6.7
2020-Jan-21 00:00 023 3 gusting 8 6.7
2020-Jan-20 23:55 006 2 gusting 6 6.7
2020-Jan-20 23:50 359 1 gusting 6 6.7
2020-Jan-20 23:45 009 1 gusting 6 6.7
2020-Jan-20 23:40 002 0 gusting 4 6.7
2020-Jan-20 23:35 014 2 gusting 6 6.7
2020-Jan-20 23:30 025 3 gusting 6 6.7
2020-Jan-20 23:25 021 2 gusting 6 6.7
2020-Jan-20 23:20 011 3 gusting 9 6.7
2020-Jan-20 23:15 008 4 gusting 9 6.7
2020-Jan-20 23:10 013 5 gusting 11 6.7
2020-Jan-20 23:05 013 4 gusting 11 6.7
2020-Jan-20 23:00 355 4 gusting 12 6.7
2020-Jan-20 22:55 005 4 gusting 12 6.7
2020-Jan-20 22:50 020 4 gusting 9 6.7
2020-Jan-20 22:45 022 5 gusting 13 6.7
2020-Jan-20 22:40 018 4 gusting 13 6.7
2020-Jan-20 22:35 005 4 gusting 11 6.7
2020-Jan-20 22:30 002 4 gusting 11 6.7
2020-Jan-20 22:25 007 5 gusting 11 6.7
2020-Jan-20 22:20 006 5 gusting 11 6.7
2020-Jan-20 22:15 007 5 gusting 11 6.7
2020-Jan-20 22:10 008 6 gusting 14 6.7
2020-Jan-20 22:05 006 5 gusting 14 6.7
2020-Jan-20 22:00 002 4 gusting 14 6.7
2020-Jan-20 21:55 009 5 gusting 9 6.7
2020-Jan-20 21:50 018 5 gusting 10 6.7
2020-Jan-20 21:45 354 5 gusting 10 6.7
2020-Jan-20 21:40 341 4 gusting 10 6.7
2020-Jan-20 21:35 357 4 gusting 13 6.7
2020-Jan-20 21:30 004 4 gusting 13 6.7
2020-Jan-20 21:25 359 4 gusting 10 6.7
2020-Jan-20 21:20 004 4 gusting 10 6.7
2020-Jan-20 21:15 024 4 gusting 10 6.7
2020-Jan-20 21:10 030 4 gusting 9 6.7
2020-Jan-20 21:05 010 4 gusting 10 6.7
2020-Jan-20 21:00 357 3 gusting 10 6.7
2020-Jan-20 20:55 002 3 gusting 6 6.7
2020-Jan-20 20:50 354 2 gusting 9 6.7
2020-Jan-20 20:45 350 4 gusting 9 6.7
2020-Jan-20 20:40 005 4 gusting 9 6.1
2020-Jan-20 20:35 009 3 gusting 7 6.1
2020-Jan-20 20:30 345 3 gusting 9 6.1
2020-Jan-20 20:25 343 4 gusting 9 6.1
2020-Jan-20 20:20 346 2 gusting 6 6.1
2020-Jan-20 20:15 340 1 gusting 6 6.1
2020-Jan-20 20:10 350 1 gusting 6 6.1
2020-Jan-20 20:05 353 0 gusting 5 6.1
2020-Jan-20 20:00 348 1 gusting 6 6.1
2020-Jan-20 19:55 003 1 gusting 6 6.1
2020-Jan-20 19:50 009 1 gusting 7 6.1
2020-Jan-20 19:45 003 2 gusting 7 6.1
2020-Jan-20 19:40 006 3 gusting 8 6.1
2020-Jan-20 19:35 011 3 gusting 9 6.1
2020-Jan-20 19:30 008 4 gusting 9 6.1
2020-Jan-20 19:25 356 3 gusting 8 6.1
2020-Jan-20 19:20 007 2 gusting 6 6.1
2020-Jan-20 19:15 017 2 gusting 6 6.1
2020-Jan-20 19:10 021 2 gusting 6 6.1
2020-Jan-20 19:05 001 1 gusting 6 5.6
2020-Jan-20 19:00 342 0 gusting 6 6.1
2020-Jan-20 18:55 339 0 gusting 3 6.1
2020-Jan-20 18:50 344 1 gusting 6 6.1
2020-Jan-20 18:45 359 1 gusting 6 5.6
2020-Jan-20 18:40 014 1 gusting 5 6.1
2020-Jan-20 18:35 019 1 gusting 5 6.1
2020-Jan-20 18:30 355 1 gusting 3 5.6
2020-Jan-20 18:25 020 1 gusting 4 6.1
2020-Jan-20 18:20 052 1 gusting 4 6.1
2020-Jan-20 18:15 004 0 gusting 4 6.1
2020-Jan-20 18:10 342 0 gusting 3 6.1
2020-Jan-20 18:05 333 0 gusting 4 6.1
2020-Jan-20 18:00 348 1 gusting 4 6.1
2020-Jan-20 17:55 351 1 gusting 3 6.1
2020-Jan-20 17:50 331 1 gusting 3 6.1
2020-Jan-20 17:45 345 1 gusting 4 6.1
2020-Jan-20 17:40 005 0 gusting 4 6.1
2020-Jan-20 17:35 333 1 gusting 5 6.1
2020-Jan-20 17:30 335 1 gusting 6 6.1
2020-Jan-20 17:25 012 2 gusting 8 5.6
2020-Jan-20 17:20 031 2 gusting 8 5.6
2020-Jan-20 17:15 013 2 gusting 6 5.6
2020-Jan-20 17:10 346 2 gusting 6 5.6
2020-Jan-20 17:05 344 2 gusting 6 5.6
2020-Jan-20 17:00 342 3 gusting 6 5.6
2020-Jan-20 16:55 338 3 gusting 6 5.6
2020-Jan-20 16:50 348 2 gusting 6 5.6
2020-Jan-20 16:45 012 2 gusting 7 5.6
2020-Jan-20 16:40 013 3 gusting 9 5.6
2020-Jan-20 16:35 354 5 gusting 12 5.6
2020-Jan-20 16:30 349 6 gusting 12 5.6
2020-Jan-20 16:25 003 5 gusting 13 5.6
2020-Jan-20 16:20 024 4 gusting 13 6.1
2020-Jan-20 16:15 021 4 gusting 11 6.1
2020-Jan-20 16:10 350 3 gusting 8 6.1
2020-Jan-20 16:05 340 2 gusting 8 6.1
2020-Jan-20 16:00 039 2 gusting 6 6.1
2020-Jan-20 15:55 047 2 gusting 6 6.1
2020-Jan-20 15:50 018 1 gusting 6 6.1
2020-Jan-20 15:45 022 1 gusting 6 6.1
2020-Jan-20 15:40 028 0 gusting 3 6.1
2020-Jan-20 15:35 043 0 gusting 4 6.1
2020-Jan-20 15:30 035 2 gusting 8 6.1
2020-Jan-20 15:25 006 2 gusting 8 6.1
2020-Jan-20 15:20 005 2 gusting 6 6.1
2020-Jan-20 15:15 012 2 gusting 6 6.1
2020-Jan-20 15:10 355 2 gusting 6 6.1
2020-Jan-20 15:05 019 2 gusting 7 6.7
2020-Jan-20 15:00 033 2 gusting 7 6.7
2020-Jan-20 14:55 020 1 gusting 7 6.7
2020-Jan-20 14:50 031 1 gusting 6 6.7
2020-Jan-20 14:45 010 1 gusting 7 6.7
2020-Jan-20 14:40 010 2 gusting 7 6.7
2020-Jan-20 14:35 355 2 gusting 7 6.7
2020-Jan-20 14:30 005 3 gusting 7 6.7
2020-Jan-20 14:25 034 3 gusting 9 6.7
2020-Jan-20 14:20 033 3 gusting 9 6.7
2020-Jan-20 14:15 020 3 gusting 7 6.7
2020-Jan-20 14:10 007 3 gusting 9 6.7
2020-Jan-20 14:05 324 3 gusting 9 6.7
2020-Jan-20 14:00 352 4 gusting 8 6.7
2020-Jan-20 13:55 025 4 gusting 10 6.7
2020-Jan-20 13:50 028 4 gusting 10 6.7
2020-Jan-20 13:45 031 3 gusting 10 6.7
2020-Jan-20 13:40 037 3 gusting 10 7.2
2020-Jan-20 13:35 038 2 gusting 7 7.2
2020-Jan-20 13:30 046 3 gusting 6 7.2
2020-Jan-20 13:25 034 3 gusting 13 7.2
2020-Jan-20 13:20 035 3 gusting 13 7.2
2020-Jan-20 13:15 021 5 gusting 12 7.8
2020-Jan-20 13:10 006 5 gusting 12 7.8
2020-Jan-20 13:05 015 4 gusting 10 7.8
2020-Jan-20 13:00 016 4 gusting 13 7.8
2020-Jan-20 12:55 011 5 gusting 13 7.8
2020-Jan-20 12:50 355 6 gusting 13 7.8
2020-Jan-20 12:45 351 5 gusting 12 7.8
2020-Jan-20 12:40 010 6 gusting 12 7.8
2020-Jan-20 12:35 008 6 gusting 17 7.8
2020-Jan-20 12:30 358 5 gusting 17 7.8
2020-Jan-20 12:25 001 2 gusting 11 7.8
2020-Jan-20 12:20 014 2 gusting 6 7.8
2020-Jan-20 12:15 030 2 gusting 6 7.8
2020-Jan-20 12:10 036 2 gusting 8 7.8
2020-Jan-20 12:05 013 3 gusting 9 7.8
2020-Jan-20 12:00 350 4 gusting 9 7.8
2020-Jan-20 11:55 010 3 gusting 8 7.8
2020-Jan-20 11:50 024 3 gusting 9 7.8
2020-Jan-20 11:45 017 2 gusting 9 7.2
2020-Jan-20 11:40 016 3 gusting 8 7.2
2020-Jan-20 11:35 010 3 gusting 9 7.2
2020-Jan-20 11:30 006 3 gusting 9 7.2
2020-Jan-20 11:25 020 4 gusting 7 7.2
2020-Jan-20 11:20 015 4 gusting 8 7.2
2020-Jan-20 11:15 344 4 gusting 9 7.2
2020-Jan-20 11:10 328 2 gusting 9 7.2
2020-Jan-20 11:05 043 2 gusting 6 7.8
2020-Jan-20 11:00 040 1 gusting 6 7.8
2020-Jan-20 10:55 023 1 gusting 6 7.8
2020-Jan-20 10:50 009 1 gusting 6 7.8
2020-Jan-20 10:45 003 1 gusting 3 7.2
2020-Jan-20 10:40 038 1 gusting 6 7.2
2020-Jan-20 10:35 044 2 gusting 6 7.2
2020-Jan-20 10:30 031 2 gusting 6 7.2
2020-Jan-20 10:25 037 2 gusting 8 7.2
2020-Jan-20 10:20 015 3 gusting 8 7.2
2020-Jan-20 10:15 356 3 gusting 8 7.2
2020-Jan-20 10:10 009 3 gusting 8 7.8
2020-Jan-20 10:05 001 4 gusting 8 7.8
2020-Jan-20 10:00 348 2 gusting 8 7.8
2020-Jan-20 09:55 346 1 gusting 4 7.8
2020-Jan-20 09:50 003 2 gusting 6 7.2
2020-Jan-20 09:45 013 3 gusting 10 7.2
2020-Jan-20 09:40 024 2 gusting 10 7.2
2020-Jan-20 09:35 046 2 gusting 10 7.2
2020-Jan-20 09:30 024 2 gusting 9 7.2
2020-Jan-20 09:25 012 3 gusting 9 7.2
2020-Jan-20 09:20 042 3 gusting 9 7.2
2020-Jan-20 09:15 070 3 gusting 9 7.2
2020-Jan-20 09:10 052 2 gusting 9 7.2
2020-Jan-20 09:05 024 2 gusting 10 7.2
2020-Jan-20 09:00 008 4 gusting 10 7.2
2020-Jan-20 08:55 011 3 gusting 11 7.2
2020-Jan-20 08:50 037 1 gusting 11 7.2
2020-Jan-20 08:45 038 1 gusting 6 7.2
2020-Jan-20 08:40 013 2 gusting 6 7.2
2020-Jan-20 08:35 001 3 gusting 6 6.7
2020-Jan-20 08:30 010 4 gusting 8 6.7
2020-Jan-20 08:25 012 2 gusting 8 6.7
2020-Jan-20 08:20 009 0 gusting 6 6.7
2020-Jan-20 08:15 018 0 gusting 3 6.7
2020-Jan-20 08:10 244 0 gusting 1 6.7
2020-Jan-20 08:05 244 0 gusting 1 6.7
2020-Jan-20 08:00 228 0 gusting 1 6.7
2020-Jan-20 07:55 225 6.7
2020-Jan-20 07:50 258 6.7
2020-Jan-20 07:45 248 6.7
2020-Jan-20 07:40 237 6.7
2020-Jan-20 07:35 204 6.7
2020-Jan-20 07:30 171 0 gusting 2 6.7
2020-Jan-20 07:25 192 0 gusting 2 6.7
2020-Jan-20 07:20 205 0 gusting 2 6.1
2020-Jan-20 07:15 182 1 gusting 5 6.1
2020-Jan-20 07:10 169 2 gusting 5 6.1
2020-Jan-20 07:05 155 1 gusting 5 6.1
2020-Jan-20 07:00 161 1 gusting 3 6.1
2020-Jan-20 06:55 163 0 gusting 3 6.1
2020-Jan-20 06:50 152 0 gusting 2 6.1
2020-Jan-20 06:45 166 0 gusting 2 6.1
2020-Jan-20 06:40 160 0 gusting 1 6.1
2020-Jan-20 06:35 133 0 gusting 1 6.1
2020-Jan-20 06:30 164 6.1
2020-Jan-20 06:25 103 0 gusting 3 6.1
2020-Jan-20 06:20 098 1 gusting 5 6.1
2020-Jan-20 06:15 171 1 gusting 5 6.1
2020-Jan-20 06:10 194 1 gusting 5 6.1
2020-Jan-20 06:05 213 1 gusting 3 6.1
2020-Jan-20 06:00 232 0 gusting 2 6.1
2020-Jan-20 05:55 242 0 gusting 3 6.1
2020-Jan-20 05:50 240 0 gusting 3 5.6
2020-Jan-20 05:45 244 0 gusting 3 5.6
2020-Jan-20 05:40 276 5.6
2020-Jan-20 05:35 284 0 gusting 1 5.6
2020-Jan-20 05:30 291 0 gusting 1 5.6
2020-Jan-20 05:25 278 5.6
2020-Jan-20 05:20 272 5.6
2020-Jan-20 05:15 102 0 gusting 3 5.6
2020-Jan-20 05:10 088 0 gusting 3 5.6
2020-Jan-20 05:05 340 0 gusting 3 5.6
2020-Jan-20 05:00 332 0 gusting 3 5.6
2020-Jan-20 04:55 316 0 gusting 2 5.6
2020-Jan-20 04:50 257 0 gusting 3 5.6
2020-Jan-20 04:45 241 0 gusting 3 5.6
2020-Jan-20 04:40 311 1 gusting 6 5.6
2020-Jan-20 04:35 338 1 gusting 6 5.6
2020-Jan-20 04:30 340 0 gusting 3 5.6
2020-Jan-20 04:25 344 0 gusting 5 5.6
2020-Jan-20 04:20 355 2 gusting 11 5.6
2020-Jan-20 04:15 002 3 gusting 11 5.6
2020-Jan-20 04:10 004 3 gusting 9 6.1
2020-Jan-20 04:05 357 4 gusting 9 6.1
2020-Jan-20 04:00 344 4 gusting 11 6.1
2020-Jan-20 03:55 355 4 gusting 11 6.1
2020-Jan-20 03:50 007 4 gusting 11 6.1
2020-Jan-20 03:45 356 2 gusting 6 6.1
2020-Jan-20 03:40 351 1 gusting 6 6.1
2020-Jan-20 03:35 004 0 gusting 5 6.1
2020-Jan-20 03:30 354 0 gusting 4 6.1
2020-Jan-20 03:25 344 0 gusting 3 6.1
2020-Jan-20 03:20 343 1 gusting 4 6.1
2020-Jan-20 03:15 339 1 gusting 4 6.1
2020-Jan-20 03:10 320 0 gusting 4 6.1
2020-Jan-20 03:05 339 0 gusting 2 6.1
2020-Jan-20 03:00 021 0 gusting 3 6.1
2020-Jan-20 02:55 018 0 gusting 3 6.1
2020-Jan-20 02:50 006 1 gusting 5 6.1
2020-Jan-20 02:45 002 1 gusting 5 6.1
2020-Jan-20 02:40 342 0 gusting 3 5.6
2020-Jan-20 02:35 326 0 gusting 2 5.6
2020-Jan-20 02:30 331 0 gusting 2 6.1
2020-Jan-20 02:25 329 0 gusting 2 6.1
2020-Jan-20 02:20 340 0 gusting 3 6.1
2020-Jan-20 02:15 345 1 gusting 3 6.1
2020-Jan-20 02:10 339 0 gusting 3 6.1
2020-Jan-20 02:05 343 0 gusting 6 6.1
2020-Jan-20 02:00 347 1 gusting 6 6.1
2020-Jan-20 01:55 339 0 gusting 3 6.1
2020-Jan-20 01:50 345 1 gusting 6 6.1
2020-Jan-20 01:45 356 1 gusting 6 6.1
2020-Jan-20 01:40 347 1 gusting 5 6.1
2020-Jan-20 01:35 334 2 gusting 6 6.1
2020-Jan-20 01:30 344 2 gusting 6 6.1
2020-Jan-20 01:25 353 0 gusting 6 6.1
2020-Jan-20 01:20 010 0 gusting 3 6.1
2020-Jan-20 01:15 345 1 gusting 4 6.1
2020-Jan-20 01:10 336 1 gusting 4 6.1
2020-Jan-20 01:05 343 0 gusting 3 6.1
2020-Jan-20 01:00 354 0 gusting 3 6.1
2020-Jan-20 00:55 009 1 gusting 3 6.1
2020-Jan-20 00:50 010 1 gusting 6 6.1
2020-Jan-20 00:45 002 1 gusting 6 6.1
2020-Jan-20 00:40 025 2 gusting 6 6.1
2020-Jan-20 00:35 043 2 gusting 6 6.1
2020-Jan-20 00:30 042 2 gusting 6 6.1
2020-Jan-20 00:25 032 2 gusting 6 6.1
2020-Jan-20 00:20 008 1 gusting 6 6.1
2020-Jan-20 00:15 012 0 gusting 5 6.1
2020-Jan-20 00:10 070 0 gusting 4 6.1
2020-Jan-20 00:05 091 0 gusting 3 6.1
2020-Jan-20 00:00 036 0 gusting 3 6.1
2020-Jan-19 23:55 353 0 gusting 4 6.1
2020-Jan-19 23:50 343 0 gusting 4 6.1
2020-Jan-19 23:45 346 0 gusting 3 6.1
2020-Jan-19 23:40 344 0 gusting 3 6.1
2020-Jan-19 23:35 309 0 gusting 1 6.1
2020-Jan-19 23:30 320 0 gusting 3 6.1
2020-Jan-19 23:25 324 0 gusting 3 6.1
2020-Jan-19 23:20 314 0 gusting 2 6.1
2020-Jan-19 23:15 299 0 gusting 3 6.1
2020-Jan-19 23:10 288 1 gusting 3 6.1
2020-Jan-19 23:05 299 0 gusting 2 6.1
2020-Jan-19 23:00 313 0 gusting 3 6.1
2020-Jan-19 22:55 314 0 gusting 3 6.1
2020-Jan-19 22:50 305 0 gusting 2 6.1
2020-Jan-19 22:45 303 0 gusting 3 6.1
2020-Jan-19 22:40 312 6.1
2020-Jan-19 22:35 340 0 gusting 3 6.1
2020-Jan-19 22:30 349 1 gusting 5 6.1
2020-Jan-19 22:25 352 1 gusting 5 6.1
2020-Jan-19 22:20 357 1 gusting 3 6.1
2020-Jan-19 22:15 001 2 gusting 5 6.1
2020-Jan-19 22:10 006 2 gusting 5 6.1
2020-Jan-19 22:05 009 2 gusting 5 6.1
2020-Jan-19 21:55 353 2 gusting 6 6.1
2020-Jan-19 21:50 354 2 gusting 5 6.1
2020-Jan-19 21:45 358 2 gusting 6 6.1
2020-Jan-19 21:40 009 1 gusting 6 6.1
2020-Jan-19 21:35 006 1 gusting 4 6.1
2020-Jan-19 21:30 351 0 gusting 4 6.1
2020-Jan-19 21:25 352 0 gusting 3 6.1
2020-Jan-19 21:20 003 1 gusting 4 6.1
2020-Jan-19 21:15 015 1 gusting 4 6.1
2020-Jan-19 21:10 020 1 gusting 5 6.1
2020-Jan-19 21:05 015 1 gusting 5 6.1
2020-Jan-19 21:00 019 1 gusting 5 6.1
2020-Jan-19 20:55 027 1 gusting 4 6.1
2020-Jan-19 20:50 022 1 gusting 5 6.1
2020-Jan-19 20:45 026 2 gusting 6 6.1
2020-Jan-19 20:40 029 2 gusting 6 6.1
2020-Jan-19 20:35 017 2 gusting 6 6.1
2020-Jan-19 20:30 010 2 gusting 9 6.1
2020-Jan-19 20:25 014 2 gusting 9 6.1
2020-Jan-19 20:20 013 2 gusting 6 6.1
2020-Jan-19 20:15 006 2 gusting 6 6.1
2020-Jan-19 20:10 013 2 gusting 6 6.1
2020-Jan-19 20:05 012 2 gusting 6 6.1
2020-Jan-19 20:00 017 2 gusting 6 6.1
2020-Jan-19 19:55 016 2 gusting 9 6.1
2020-Jan-19 19:50 019 3 gusting 9 6.1
2020-Jan-19 19:45 018 3 gusting 6 6.1
2020-Jan-19 19:40 010 3 gusting 6 6.1
2020-Jan-19 19:35 010 3 gusting 6 6.1
2020-Jan-19 19:30 018 3 gusting 6 6.1
2020-Jan-19 19:25 040 3 gusting 6 6.1
2020-Jan-19 19:20 056 2 gusting 6 6.1
2020-Jan-19 19:15 037 2 gusting 6 6.1
2020-Jan-19 19:10 031 2 gusting 6 6.1
2020-Jan-19 19:05 025 2 gusting 6 6.1
2020-Jan-19 19:00 007 1 gusting 6 6.1
2020-Jan-19 18:55 353 1 gusting 6 6.1
2020-Jan-19 18:50 353 2 gusting 5 6.1
2020-Jan-19 18:45 356 3 gusting 6 6.1
2020-Jan-19 18:40 356 2 gusting 6 6.1
2020-Jan-19 18:35 359 2 gusting 5 6.1
2020-Jan-19 18:30 348 1 gusting 4 6.1
2020-Jan-19 18:25 354 2 gusting 5 6.1
2020-Jan-19 18:20 002 2 gusting 5 6.1
2020-Jan-19 18:15 350 3 gusting 6 6.1
2020-Jan-19 18:10 348 2 gusting 6 6.1
2020-Jan-19 18:05 012 1 gusting 6 6.1
2020-Jan-19 18:00 006 1 gusting 6 6.1
2020-Jan-19 17:55 359 1 gusting 4 6.1
2020-Jan-19 17:50 015 1 gusting 4 6.1
2020-Jan-19 17:45 022 1 gusting 3 6.1
2020-Jan-19 17:40 037 1 gusting 3 6.1
2020-Jan-19 17:35 047 1 gusting 3 6.1
2020-Jan-19 17:30 047 1 gusting 4 6.1
2020-Jan-19 17:25 026 1 gusting 6 6.1
2020-Jan-19 17:20 040 2 gusting 6 6.1
2020-Jan-19 17:15 051 2 gusting 6 6.1
2020-Jan-19 17:10 064 2 gusting 6 6.1
2020-Jan-19 17:05 053 3 gusting 6 6.1
2020-Jan-19 17:00 027 3 gusting 6 6.1
2020-Jan-19 16:55 043 2 gusting 6 6.1
2020-Jan-19 16:50 029 2 gusting 6 6.1
2020-Jan-19 16:45 012 2 gusting 6 6.1
2020-Jan-19 16:40 037 2 gusting 6 6.1
2020-Jan-19 16:35 050 2 gusting 6 6.1
2020-Jan-19 16:30 051 2 gusting 6 6.1
2020-Jan-19 16:25 013 2 gusting 6 6.1
2020-Jan-19 16:20 010 2 gusting 6 6.1
2020-Jan-19 16:15 358 2 gusting 6 6.1
2020-Jan-19 16:10 357 3 gusting 6 6.1
2020-Jan-19 16:05 007 2 gusting 6 6.1
2020-Jan-19 16:00 015 2 gusting 6 6.1
2020-Jan-19 15:55 013 2 gusting 6 6.1
2020-Jan-19 15:50 021 2 gusting 6 6.1
2020-Jan-19 15:45 010 2 gusting 6 6.1
2020-Jan-19 15:40 354 3 gusting 7 6.1
2020-Jan-19 15:35 358 3 gusting 7 6.1
2020-Jan-19 15:30 004 2 gusting 7 6.7
2020-Jan-19 15:25 007 1 gusting 5 6.7
2020-Jan-19 15:20 014 1 gusting 5 6.7
2020-Jan-19 15:15 002 1 gusting 6 6.7
2020-Jan-19 15:10 012 2 gusting 6 6.7
2020-Jan-19 15:05 012 2 gusting 6 6.7
2020-Jan-19 15:00 016 2 gusting 6 6.7
2020-Jan-19 14:55 023 2 gusting 6 6.7
2020-Jan-19 14:50 023 3 gusting 6 6.7
2020-Jan-19 14:45 013 3 gusting 6 6.7
2020-Jan-19 14:40 001 3 gusting 7 6.7
2020-Jan-19 14:35 008 4 gusting 7 6.7
2020-Jan-19 14:30 006 4 gusting 6 6.7
2020-Jan-19 14:25 005 4 gusting 6 6.7
2020-Jan-19 14:20 359 4 gusting 6 6.7
2020-Jan-19 14:15 002 4 gusting 6 6.7
2020-Jan-19 14:10 010 4 gusting 6 6.7
2020-Jan-19 14:05 017 3 gusting 7 6.7
2020-Jan-19 14:00 036 2 gusting 7 6.7
2020-Jan-19 13:55 046 2 gusting 6 6.7
2020-Jan-19 13:50 024 2 gusting 9 7.2
2020-Jan-19 13:45 015 3 gusting 9 7.2
2020-Jan-19 13:40 052 4 gusting 11 7.2
2020-Jan-19 13:35 060 4 gusting 11 7.2
2020-Jan-19 13:30 058 4 gusting 11 7.2
2020-Jan-19 13:25 041 3 gusting 9 7.2
2020-Jan-19 13:20 033 4 gusting 9 7.2
2020-Jan-19 13:15 029 4 gusting 10 7.2
2020-Jan-19 13:10 021 3 gusting 10 7.2
2020-Jan-19 13:05 016 3 gusting 8 7.2
2020-Jan-19 13:00 020 3 gusting 8 7.2
2020-Jan-19 12:55 041 3 gusting 9 7.2
2020-Jan-19 12:50 049 2 gusting 9 7.2
2020-Jan-19 12:45 018 2 gusting 9 7.2
2020-Jan-19 12:40 027 3 gusting 9 7.8
2020-Jan-19 12:35 042 3 gusting 9 7.8
2020-Jan-19 12:30 033 3 gusting 7 7.8
2020-Jan-19 12:25 029 3 gusting 7 7.8
2020-Jan-19 12:20 020 3 gusting 6 7.8
2020-Jan-19 12:15 016 3 gusting 6 7.8
2020-Jan-19 12:10 067 2 gusting 6 7.8
2020-Jan-19 12:05 048 2 gusting 6 7.8
2020-Jan-19 12:00 030 1 gusting 6 7.8
2020-Jan-19 11:55 024 2 gusting 9 7.8
2020-Jan-19 11:50 012 3 gusting 9 7.8
2020-Jan-19 11:45 019 3 gusting 7 7.8
2020-Jan-19 11:40 034 3 gusting 9 7.8
2020-Jan-19 11:35 056 3 gusting 9 7.8
2020-Jan-19 11:30 066 4 gusting 12 7.8
2020-Jan-19 11:25 052 4 gusting 12 7.8
2020-Jan-19 11:20 061 3 gusting 10 7.8
2020-Jan-19 11:15 036 4 gusting 11 7.8
2020-Jan-19 11:10 034 4 gusting 11 7.8
2020-Jan-19 11:05 051 2 gusting 8 7.8
2020-Jan-19 11:00 041 3 gusting 9 7.8
2020-Jan-19 10:55 027 5 gusting 9 7.8
2020-Jan-19 10:50 035 4 gusting 12 8.3
2020-Jan-19 10:45 021 4 gusting 12 8.3
2020-Jan-19 10:40 014 4 gusting 11 8.3
2020-Jan-19 10:35 038 4 gusting 11 8.3
2020-Jan-19 10:30 033 5 gusting 10 8.3
2020-Jan-19 10:25 002 4 gusting 9 8.3
2020-Jan-19 10:20 353 4 gusting 9 8.3
2020-Jan-19 10:15 017 5 gusting 10 8.3
2020-Jan-19 10:10 022 4 gusting 10 8.3
2020-Jan-19 10:05 003 4 gusting 10 8.3
2020-Jan-19 10:00 011 5 gusting 12 8.3
2020-Jan-19 09:55 015 5 gusting 12 7.8
2020-Jan-19 09:50 011 6 gusting 13 8.3
2020-Jan-19 09:45 013 6 gusting 13 8.3
2020-Jan-19 09:40 009 6 gusting 13 7.8
2020-Jan-19 09:35 359 6 gusting 13 7.8
2020-Jan-19 09:30 349 6 gusting 13 7.8
2020-Jan-19 09:25 349 6 gusting 13 7.8
2020-Jan-19 09:20 002 6 gusting 13 8.3
2020-Jan-19 09:15 025 5 gusting 13 7.8
2020-Jan-19 09:10 037 5 gusting 13 7.8
2020-Jan-19 09:05 026 5 gusting 10 7.8
2020-Jan-19 09:00 357 4 gusting 10 7.8
2020-Jan-19 08:55 354 4 gusting 10 8.3
2020-Jan-19 08:50 003 5 gusting 13 7.8
2020-Jan-19 08:45 012 5 gusting 13 7.8
2020-Jan-19 08:40 015 3 gusting 11 8.3
2020-Jan-19 08:35 019 4 gusting 11 8.3
2020-Jan-19 08:30 013 5 gusting 11 8.3
2020-Jan-19 08:25 359 4 gusting 10 8.3
2020-Jan-19 08:20 343 3 gusting 12 8.3
2020-Jan-19 08:15 324 4 gusting 13 8.3
2020-Jan-19 08:10 039 4 gusting 13 8.3
2020-Jan-19 08:05 038 3 gusting 12 8.3
2020-Jan-19 08:00 022 3 gusting 10 8.3
2020-Jan-19 07:55 005 4 gusting 10 8.3
2020-Jan-19 07:50 026 3 gusting 9 8.3
2020-Jan-19 07:45 020 3 gusting 10 8.3
2020-Jan-19 07:40 019 4 gusting 10 7.8
2020-Jan-19 07:35 030 4 gusting 12 7.8
2020-Jan-19 07:30 019 3 gusting 12 7.8
2020-Jan-19 07:25 006 2 gusting 7 7.8
2020-Jan-19 07:20 358 2 gusting 6 7.8
2020-Jan-19 07:15 344 1 gusting 6 8.3
2020-Jan-19 07:10 332 1 gusting 4 8.3
2020-Jan-19 07:05 321 1 gusting 4 7.8
2020-Jan-19 07:00 336 0 gusting 2 7.8
2020-Jan-19 06:55 330 0 gusting 2 7.8
2020-Jan-19 06:50 319 0 gusting 3 7.2
2020-Jan-19 06:45 334 0 gusting 3 7.2
2020-Jan-19 06:40 335 0 gusting 4 6.7
2020-Jan-19 06:35 324 0 gusting 4 6.7
2020-Jan-19 06:30 324 0 gusting 3 6.7
2020-Jan-19 06:25 013 1 gusting 4 6.7
2020-Jan-19 06:20 022 1 gusting 4 6.7
2020-Jan-19 06:15 032 0 gusting 3 6.7
2020-Jan-19 06:10 047 0 gusting 2 6.7
2020-Jan-19 06:05 077 0 gusting 3 6.7
2020-Jan-19 06:00 097 1 gusting 3 6.7